Time,TemperatureF,DewpointF,PressureIn,WindDirection,WindDirectionDegrees,WindSpeedMPH,WindSpeedGustMPH,Humidity,HourlyPrecipIn,Conditions,Clouds,dailyrainin,SoftwareType,DateUTC
2016-09-27 00:04:00,57.7,56.3,30.08,NNW,346,0.0,0.0,95,0.00,,,0.00,meteobridge,2016-09-27 07:04:00,
2016-09-27 00:09:00,57.6,56.1,30.08,NNW,346,0.0,0.0,95,0.00,,,0.00,meteobridge,2016-09-27 07:09:00,
2016-09-27 00:14:00,57.6,56.1,30.09,NNW,346,0.0,0.0,95,0.00,,,0.00,meteobridge,2016-09-27 07:14:00,
2016-09-27 00:20:00,57.6,56.1,30.09,NNW,346,0.0,0.0,95,0.00,,,0.00,meteobridge,2016-09-27 07:20:00,
2016-09-27 00:25:00,57.6,56.1,30.09,NNW,346,0.0,0.0,95,0.00,,,0.00,meteobridge,2016-09-27 07:25:00,
2016-09-27 00:30:00,57.6,56.1,30.09,NNW,346,0.0,0.0,95,0.00,,,0.00,meteobridge,2016-09-27 07:30:00,
2016-09-27 00:35:00,57.7,56.3,30.09,NNW,346,0.0,0.0,95,0.00,,,0.00,meteobridge,2016-09-27 07:35:00,
2016-09-27 00:40:00,57.7,56.3,30.09,NNW,346,0.0,0.0,95,0.00,,,0.00,meteobridge,2016-09-27 07:40:00,
2016-09-27 00:45:00,57.7,56.3,30.09,NNW,346,0.0,0.0,95,0.00,,,0.00,meteobridge,2016-09-27 07:45:00,
2016-09-27 00:50:00,57.6,56.1,30.10,NNW,346,0.0,0.0,95,0.00,,,0.00,meteobridge,2016-09-27 07:50:00,
2016-09-27 00:55:00,57.6,56.1,30.10,NNW,346,0.0,0.0,95,0.00,,,0.00,meteobridge,2016-09-27 07:55:00,
2016-09-27 01:00:00,57.6,56.1,30.10,NNW,346,0.0,0.0,95,0.00,,,0.00,meteobridge,2016-09-27 08:00:00,
2016-09-27 01:05:00,57.6,56.1,30.09,NNW,346,0.0,0.0,95,0.00,,,0.00,meteobridge,2016-09-27 08:05:00,
2016-09-27 01:10:00,57.6,56.1,30.10,NNW,346,0.0,0.0,95,0.00,,,0.00,meteobridge,2016-09-27 08:10:00,
2016-09-27 01:15:00,57.6,56.1,30.09,NNW,346,0.0,0.0,95,0.00,,,0.00,meteobridge,2016-09-27 08:15:00,
2016-09-27 01:20:00,57.6,56.1,30.10,NNW,346,0.0,0.0,95,0.00,,,0.00,meteobridge,2016-09-27 08:20:00,
2016-09-27 01:25:00,57.4,56.3,30.10,NNW,346,0.0,0.0,96,0.00,,,0.00,meteobridge,2016-09-27 08:25:00,
2016-09-27 01:30:00,57.6,56.5,30.10,NNW,346,0.0,0.0,96,0.00,,,0.00,meteobridge,2016-09-27 08:30:00,
2016-09-27 01:35:00,57.6,56.1,30.10,NNW,346,0.0,0.0,95,0.00,,,0.00,meteobridge,2016-09-27 08:35:00,
2016-09-27 01:40:00,57.6,56.1,30.10,NNW,346,0.0,0.0,95,0.00,,,0.00,meteobridge,2016-09-27 08:40:00,
2016-09-27 01:45:00,57.7,56.7,30.11,NNW,346,0.0,0.0,96,0.00,,,0.00,meteobridge,2016-09-27 08:45:00,
2016-09-27 01:50:00,57.9,56.8,30.11,NNW,346,0.0,0.0,96,0.00,,,0.00,meteobridge,2016-09-27 08:50:00,
2016-09-27 01:55:00,58.5,57.0,30.11,SW,229,0.0,0.0,95,0.00,,,0.00,meteobridge,2016-09-27 08:55:00,
2016-09-27 02:00:00,58.8,57.0,30.11,SW,229,0.0,0.0,94,0.00,,,0.00,meteobridge,2016-09-27 09:00:00,
2016-09-27 02:05:00,59.0,57.2,30.11,SW,229,0.0,0.0,94,0.00,,,0.00,meteobridge,2016-09-27 09:05:00,
2016-09-27 02:10:00,59.2,57.4,30.11,SW,229,0.0,0.0,94,0.00,,,0.00,meteobridge,2016-09-27 09:10:00,
2016-09-27 02:15:00,59.4,57.6,30.11,SW,229,0.0,0.0,94,0.00,,,0.00,meteobridge,2016-09-27 09:15:00,
2016-09-27 02:21:00,59.4,57.4,30.12,SW,229,0.0,0.0,93,0.00,,,0.00,meteobridge,2016-09-27 09:21:00,
2016-09-27 02:26:00,59.5,57.6,30.11,SSW,193,0.0,1.0,93,0.00,,,0.00,meteobridge,2016-09-27 09:26:00,
2016-09-27 02:31:00,59.5,57.2,30.12,SSW,193,0.0,0.0,92,0.00,,,0.00,meteobridge,2016-09-27 09:31:00,
2016-09-27 02:36:00,59.5,57.2,30.12,SSW,193,0.0,0.0,92,0.00,,,0.00,meteobridge,2016-09-27 09:36:00,
2016-09-27 02:41:00,59.5,57.2,30.11,SSW,193,0.0,0.0,92,0.00,,,0.00,meteobridge,2016-09-27 09:41:00,
2016-09-27 02:46:00,59.5,57.2,30.12,SSW,193,0.0,0.0,92,0.00,,,0.00,meteobridge,2016-09-27 09:46:00,
2016-09-27 02:51:00,59.5,57.2,30.12,SSW,193,0.0,0.0,92,0.00,,,0.00,meteobridge,2016-09-27 09:51:00,
2016-09-27 02:56:00,59.5,57.2,30.12,SSW,193,0.0,0.0,92,0.00,,,0.00,meteobridge,2016-09-27 09:56:00,
2016-09-27 03:01:00,59.5,57.6,30.12,SSW,193,0.0,0.0,93,0.00,,,0.00,meteobridge,2016-09-27 10:01:00,
2016-09-27 03:06:00,59.5,57.6,30.12,SSW,193,0.0,0.0,93,0.00,,,0.00,meteobridge,2016-09-27 10:06:00,
2016-09-27 03:11:00,59.4,57.4,30.12,SSW,193,0.0,0.0,93,0.00,,,0.00,meteobridge,2016-09-27 10:11:00,
2016-09-27 03:16:00,59.4,57.4,30.12,SSW,193,0.0,0.0,93,0.00,,,0.00,meteobridge,2016-09-27 10:16:00,
2016-09-27 03:21:00,59.4,57.4,30.12,SSW,193,0.0,0.0,93,0.00,,,0.00,meteobridge,2016-09-27 10:21:00,
2016-09-27 03:26:00,59.2,57.2,30.13,SSW,193,0.0,0.0,93,0.00,,,0.00,meteobridge,2016-09-27 10:26:00,
2016-09-27 03:31:00,59.2,57.4,30.13,SSW,193,0.0,0.0,94,0.00,,,0.00,meteobridge,2016-09-27 10:31:00,
2016-09-27 03:37:00,59.2,57.4,30.13,SSW,193,0.0,0.0,94,0.00,,,0.00,meteobridge,2016-09-27 10:37:00,
2016-09-27 03:42:00,59.2,57.4,30.13,SSW,193,0.0,0.0,94,0.00,,,0.00,meteobridge,2016-09-27 10:42:00,
2016-09-27 03:47:00,59.2,57.4,30.13,SSW,193,0.0,0.0,94,0.00,,,0.00,meteobridge,2016-09-27 10:47:00,
2016-09-27 03:52:00,59.2,57.4,30.13,SSW,193,0.0,0.0,94,0.00,,,0.00,meteobridge,2016-09-27 10:52:00,
2016-09-27 03:57:00,59.2,57.4,30.13,SSW,193,0.0,0.0,94,0.00,,,0.00,meteobridge,2016-09-27 10:57:00,
2016-09-27 04:02:00,59.4,57.6,30.13,SSW,193,0.0,0.0,94,0.00,,,0.00,meteobridge,2016-09-27 11:02:00,
2016-09-27 04:07:00,59.4,57.6,30.13,SSW,193,0.0,0.0,94,0.00,,,0.00,meteobridge,2016-09-27 11:07:00,
2016-09-27 04:12:00,59.4,57.6,30.13,SSW,193,0.0,0.0,94,0.00,,,0.00,meteobridge,2016-09-27 11:12:00,
2016-09-27 04:17:00,59.4,57.6,30.14,SSW,193,0.0,0.0,94,0.00,,,0.00,meteobridge,2016-09-27 11:17:00,
2016-09-27 04:22:00,59.4,57.6,30.13,SSW,193,0.0,0.0,94,0.00,,,0.00,meteobridge,2016-09-27 11:22:00,
2016-09-27 04:27:00,59.4,57.6,30.13,SSW,193,0.0,0.0,94,0.00,,,0.00,meteobridge,2016-09-27 11:27:00,
2016-09-27 04:32:00,59.4,57.6,30.14,SSW,193,0.0,0.0,94,0.00,,,0.00,meteobridge,2016-09-27 11:32:00,
2016-09-27 04:42:00,59.2,57.4,30.14,SSW,193,0.0,0.0,94,0.00,,,0.00,meteobridge,2016-09-27 11:42:00,
2016-09-27 04:47:00,59.2,57.4,30.14,SSW,193,0.0,0.0,94,0.00,,,0.00,meteobridge,2016-09-27 11:47:00,
2016-09-27 04:52:00,59.2,57.7,30.14,SSW,193,0.0,0.0,95,0.00,,,0.00,meteobridge,2016-09-27 11:52:00,
2016-09-27 04:57:00,59.2,57.4,30.14,SSW,193,0.0,0.0,94,0.00,,,0.00,meteobridge,2016-09-27 11:57:00,
2016-09-27 05:02:00,59.2,57.4,30.14,SSW,193,0.0,0.0,94,0.00,,,0.00,meteobridge,2016-09-27 12:02:00,
2016-09-27 05:07:00,59.2,57.7,30.14,SSW,193,0.0,0.0,95,0.00,,,0.00,meteobridge,2016-09-27 12:07:00,
2016-09-27 05:12:00,59.2,57.7,30.14,SSW,193,0.0,0.0,95,0.00,,,0.00,meteobridge,2016-09-27 12:12:00,
2016-09-27 05:17:00,59.2,57.7,30.14,SSW,193,0.0,0.0,95,0.00,,,0.00,meteobridge,2016-09-27 12:17:00,
2016-09-27 05:22:00,59.2,57.7,30.14,SSW,193,0.0,0.0,95,0.00,,,0.00,meteobridge,2016-09-27 12:22:00,
2016-09-27 05:28:00,59.0,57.6,30.14,SSW,193,0.0,0.0,95,0.00,,,0.00,meteobridge,2016-09-27 12:28:00,
2016-09-27 05:33:00,59.0,57.6,30.14,SSW,193,0.0,0.0,95,0.00,,,0.00,meteobridge,2016-09-27 12:33:00,
2016-09-27 05:43:00,59.0,57.9,30.14,SSW,193,0.0,0.0,96,0.00,,,0.00,meteobridge,2016-09-27 12:43:00,
2016-09-27 05:48:00,58.8,57.4,30.14,SSW,193,0.0,0.0,95,0.00,,,0.00,meteobridge,2016-09-27 12:48:00,
2016-09-27 05:53:00,58.8,57.4,30.14,SSW,193,0.0,0.0,95,0.00,,,0.00,meteobridge,2016-09-27 12:53:00,
2016-09-27 05:58:00,58.8,57.4,30.14,SSW,193,0.0,0.0,95,0.00,,,0.00,meteobridge,2016-09-27 12:58:00,
2016-09-27 06:03:00,58.8,57.7,30.14,SSW,193,0.0,0.0,96,0.00,,,0.00,meteobridge,2016-09-27 13:03:00,
2016-09-27 06:08:00,58.8,57.7,30.14,SSW,193,0.0,0.0,96,0.00,,,0.00,meteobridge,2016-09-27 13:08:00,
2016-09-27 06:13:00,58.8,57.7,30.14,SSW,193,0.0,0.0,96,0.00,,,0.00,meteobridge,2016-09-27 13:13:00,
2016-09-27 06:18:00,58.8,57.7,30.14,SSW,193,0.0,0.0,96,0.00,,,0.00,meteobridge,2016-09-27 13:18:00,
2016-09-27 06:23:00,58.6,57.6,30.14,SSW,193,0.0,0.0,96,0.00,,,0.00,meteobridge,2016-09-27 13:23:00,
2016-09-27 06:28:00,58.6,57.6,30.14,SSW,193,0.0,0.0,96,0.00,,,0.00,meteobridge,2016-09-27 13:28:00,
2016-09-27 06:33:00,58.6,57.6,30.14,SSW,193,0.0,0.0,96,0.00,,,0.00,meteobridge,2016-09-27 13:33:00,
2016-09-27 06:38:00,58.6,57.6,30.14,SSW,193,0.0,0.0,96,0.00,,,0.00,meteobridge,2016-09-27 13:38:00,
2016-09-27 06:43:00,58.6,57.6,30.14,SSW,193,0.0,0.0,96,0.00,,,0.00,meteobridge,2016-09-27 13:43:00,
2016-09-27 06:48:00,58.6,57.6,30.15,SSW,193,0.0,0.0,96,0.00,,,0.00,meteobridge,2016-09-27 13:48:00,
2016-09-27 06:53:00,58.6,57.6,30.14,SSW,193,0.0,0.0,96,0.00,,,0.00,meteobridge,2016-09-27 13:53:00,
2016-09-27 06:58:00,58.6,57.6,30.15,SSW,193,0.0,0.0,96,0.00,,,0.00,meteobridge,2016-09-27 13:58:00,
2016-09-27 07:03:00,58.6,57.6,30.14,SSW,193,0.0,0.0,96,0.00,,,0.00,meteobridge,2016-09-27 14:03:00,
2016-09-27 07:08:00,58.6,57.6,30.15,SSW,193,0.0,0.0,96,0.00,,,0.00,meteobridge,2016-09-27 14:08:00,
2016-09-27 07:13:00,58.6,57.6,30.15,SW,219,0.9,1.0,96,0.00,,,0.00,meteobridge,2016-09-27 14:13:00,
2016-09-27 07:18:00,58.6,57.6,30.15,SW,219,0.0,0.0,96,0.00,,,0.00,meteobridge,2016-09-27 14:18:00,
2016-09-27 07:23:00,58.6,57.6,30.14,SW,219,0.0,0.0,96,0.00,,,0.00,meteobridge,2016-09-27 14:23:00,
2016-09-27 07:28:00,58.6,57.2,30.15,SW,219,0.0,0.0,95,0.00,,,0.00,meteobridge,2016-09-27 14:28:00,
2016-09-27 07:33:00,58.6,57.2,30.15,SW,219,0.0,0.0,95,0.00,,,0.00,meteobridge,2016-09-27 14:33:00,
2016-09-27 07:38:00,58.8,57.4,30.15,SW,219,0.0,0.0,95,0.00,,,0.00,meteobridge,2016-09-27 14:38:00,
2016-09-27 07:48:00,58.8,57.0,30.15,SW,219,0.0,0.0,94,0.00,,,0.00,meteobridge,2016-09-27 14:48:00,
2016-09-27 07:53:00,58.8,57.0,30.16,SW,219,0.0,1.0,94,0.00,,,0.00,meteobridge,2016-09-27 14:53:00,
2016-09-27 07:58:00,59.2,57.4,30.16,SW,219,0.0,0.0,94,0.00,,,0.00,meteobridge,2016-09-27 14:58:00,
2016-09-27 08:03:00,59.2,57.4,30.16,SW,219,0.0,0.0,94,0.00,,,0.00,meteobridge,2016-09-27 15:03:00,
2016-09-27 08:08:00,59.2,57.2,30.16,SW,219,0.0,0.0,93,0.00,,,0.00,meteobridge,2016-09-27 15:08:00,
2016-09-27 08:13:00,59.4,57.4,30.16,WSW,250,0.0,0.0,93,0.00,,,0.00,meteobridge,2016-09-27 15:13:00,
2016-09-27 08:18:00,59.4,57.4,30.16,WSW,250,0.0,0.0,93,0.00,,,0.00,meteobridge,2016-09-27 15:18:00,
2016-09-27 08:24:00,59.4,57.4,30.16,WSW,250,0.0,1.0,93,0.00,,,0.00,meteobridge,2016-09-27 15:24:00,
2016-09-27 08:29:00,59.5,57.6,30.16,West,269,0.0,1.0,93,0.00,,,0.00,meteobridge,2016-09-27 15:29:00,
2016-09-27 08:34:00,59.5,57.2,30.16,West,278,0.0,1.0,92,0.00,,,0.00,meteobridge,2016-09-27 15:34:00,
2016-09-27 08:39:00,59.5,57.2,30.17,WSW,238,0.0,1.0,92,0.00,,,0.00,meteobridge,2016-09-27 15:39:00,
2016-09-27 08:44:00,59.7,56.8,30.17,WSW,253,0.0,1.0,90,0.00,,,0.00,meteobridge,2016-09-27 15:44:00,
2016-09-27 08:49:00,59.5,56.3,30.17,NW,312,2.0,2.0,89,0.00,,,0.00,meteobridge,2016-09-27 15:49:00,
2016-09-27 08:54:00,59.5,55.6,30.17,NNW,330,0.0,1.0,87,0.00,,,0.00,meteobridge,2016-09-27 15:54:00,
2016-09-27 08:59:00,59.7,55.8,30.17,NNW,330,0.0,0.0,87,0.00,,,0.00,meteobridge,2016-09-27 15:59:00,
2016-09-27 09:04:00,59.7,55.6,30.17,WNW,297,0.0,0.0,86,0.00,,,0.00,meteobridge,2016-09-27 16:04:00,
2016-09-27 09:09:00,59.9,55.0,30.18,NNW,337,0.0,0.0,84,0.00,,,0.00,meteobridge,2016-09-27 16:09:00,
2016-09-27 09:14:00,59.7,54.1,30.18,NW,326,0.0,1.0,82,0.00,,,0.00,meteobridge,2016-09-27 16:14:00,
2016-09-27 09:19:00,59.7,53.6,30.18,NW,326,0.9,2.0,80,0.00,,,0.00,meteobridge,2016-09-27 16:19:00,
2016-09-27 09:24:00,59.7,51.4,30.18,North,353,0.0,4.0,74,0.00,,,0.00,meteobridge,2016-09-27 16:24:00,
2016-09-27 09:29:00,59.5,50.5,30.18,NNW,330,0.9,4.0,72,0.00,,,0.00,meteobridge,2016-09-27 16:29:00,
2016-09-27 09:34:00,59.5,50.9,30.18,NW,321,0.0,1.0,73,0.00,,,0.00,meteobridge,2016-09-27 16:34:00,
2016-09-27 09:39:00,59.4,50.4,30.18,South,184,0.0,0.0,72,0.00,,,0.00,meteobridge,2016-09-27 16:39:00,
2016-09-27 09:44:00,59.5,50.5,30.18,ENE,70,0.0,2.0,72,0.00,,,0.00,meteobridge,2016-09-27 16:44:00,
2016-09-27 09:50:00,59.5,49.8,30.18,NW,325,0.9,1.0,70,0.00,,,0.00,meteobridge,2016-09-27 16:50:00,
2016-09-27 09:55:00,59.7,49.5,30.18,NW,309,0.9,2.0,69,0.00,,,0.00,meteobridge,2016-09-27 16:55:00,
2016-09-27 10:00:00,59.5,48.9,30.18,NW,312,0.9,1.0,68,0.00,,,0.00,meteobridge,2016-09-27 17:00:00,
2016-09-27 10:05:00,59.4,48.7,30.18,NNW,332,0.9,2.0,68,0.00,,,0.00,meteobridge,2016-09-27 17:05:00,
2016-09-27 10:10:00,59.2,49.5,30.18,NNW,330,0.0,1.0,70,0.00,,,0.00,meteobridge,2016-09-27 17:10:00,
2016-09-27 10:15:00,59.2,49.1,30.18,NNW,330,0.9,1.0,69,0.00,,,0.00,meteobridge,2016-09-27 17:15:00,
2016-09-27 10:20:00,58.8,48.7,30.19,NNW,330,0.0,1.0,69,0.00,,,0.00,meteobridge,2016-09-27 17:20:00,
2016-09-27 10:25:00,59.2,48.2,30.18,NW,319,0.0,2.0,67,0.00,,,0.00,meteobridge,2016-09-27 17:25:00,
2016-09-27 10:30:00,59.7,49.1,30.19,NW,319,0.0,0.0,68,0.00,,,0.00,meteobridge,2016-09-27 17:30:00,
2016-09-27 10:35:00,60.3,48.9,30.19,NW,319,0.9,1.0,66,0.00,,,0.00,meteobridge,2016-09-27 17:35:00,
2016-09-27 10:40:00,61.0,50.4,30.19,NW,319,0.0,0.0,68,0.00,,,0.00,meteobridge,2016-09-27 17:40:00,
2016-09-27 10:45:00,61.3,49.5,30.19,NNW,333,0.9,4.0,65,0.00,,,0.00,meteobridge,2016-09-27 17:45:00,
2016-09-27 10:50:00,61.9,49.6,30.19,NW,309,0.9,3.0,64,0.00,,,0.00,meteobridge,2016-09-27 17:50:00,
2016-09-27 10:56:00,61.7,48.9,30.18,NW,323,2.0,2.0,63,0.00,,,0.00,meteobridge,2016-09-27 17:56:00,
2016-09-27 11:01:00,61.5,49.3,30.19,NW,314,0.0,1.0,64,0.00,,,0.00,meteobridge,2016-09-27 18:01:00,
2016-09-27 11:06:00,61.5,50.0,30.19,NNW,331,0.0,1.0,66,0.00,,,0.00,meteobridge,2016-09-27 18:06:00,
2016-09-27 11:11:00,61.5,48.7,30.19,NNW,327,0.9,4.0,63,0.00,,,0.00,meteobridge,2016-09-27 18:11:00,
2016-09-27 11:16:00,61.5,49.3,30.19,NW,321,0.0,2.0,64,0.00,,,0.00,meteobridge,2016-09-27 18:16:00,
2016-09-27 11:21:00,61.7,49.8,30.19,NW,323,0.9,2.0,65,0.00,,,0.00,meteobridge,2016-09-27 18:21:00,
2016-09-27 11:26:00,61.9,50.4,30.19,NW,323,0.0,0.0,66,0.00,,,0.00,meteobridge,2016-09-27 18:26:00,
2016-09-27 11:31:00,61.5,49.6,30.19,NW,323,0.0,0.0,65,0.00,,,0.00,meteobridge,2016-09-27 18:31:00,
2016-09-27 11:36:00,61.3,51.1,30.18,NW,323,0.0,0.0,69,0.00,,,0.00,meteobridge,2016-09-27 18:36:00,
2016-09-27 11:41:00,61.9,50.7,30.18,NNW,335,0.0,3.0,67,0.00,,,0.00,meteobridge,2016-09-27 18:41:00,
2016-09-27 11:46:00,62.6,48.9,30.18,WSW,252,2.0,4.0,61,0.00,,,0.00,meteobridge,2016-09-27 18:46:00,
2016-09-27 11:51:00,63.3,49.3,30.18,NNW,329,0.0,3.0,60,0.00,,,0.00,meteobridge,2016-09-27 18:51:00,
2016-09-27 11:56:00,64.2,49.1,30.18,NNW,346,0.9,3.0,58,0.00,,,0.00,meteobridge,2016-09-27 18:56:00,
2016-09-27 12:01:00,64.9,48.9,30.18,NW,315,2.0,2.0,56,0.00,,,0.00,meteobridge,2016-09-27 19:01:00,
2016-09-27 12:06:00,65.7,49.1,30.18,North,349,0.9,2.0,55,0.00,,,0.00,meteobridge,2016-09-27 19:06:00,
2016-09-27 12:11:00,66.0,48.9,30.18,NW,316,0.0,1.0,54,0.00,,,0.00,meteobridge,2016-09-27 19:11:00,
2016-09-27 12:16:00,66.6,51.3,30.18,NW,318,0.0,0.0,58,0.00,,,0.00,meteobridge,2016-09-27 19:16:00,
2016-09-27 12:21:00,66.7,48.6,30.17,NW,321,4.9,5.0,52,0.00,,,0.00,meteobridge,2016-09-27 19:21:00,
2016-09-27 12:27:00,66.6,48.4,30.17,NW,322,2.9,4.0,52,0.00,,,0.00,meteobridge,2016-09-27 19:27:00,
2016-09-27 12:32:00,66.9,50.2,30.17,North,355,0.0,2.0,55,0.00,,,0.00,meteobridge,2016-09-27 19:32:00,
2016-09-27 12:37:00,67.3,47.5,30.18,NW,318,2.0,5.0,49,0.00,,,0.00,meteobridge,2016-09-27 19:37:00,
2016-09-27 12:42:00,67.1,47.8,30.17,NW,319,2.0,5.0,50,0.00,,,0.00,meteobridge,2016-09-27 19:42:00,
2016-09-27 12:47:00,66.9,47.7,30.17,NW,322,2.0,5.0,50,0.00,,,0.00,meteobridge,2016-09-27 19:47:00,
2016-09-27 12:52:00,66.7,47.5,30.17,West,266,0.0,3.0,50,0.00,,,0.00,meteobridge,2016-09-27 19:52:00,
2016-09-27 12:57:00,66.0,47.8,30.17,NW,325,2.9,3.0,52,0.00,,,0.00,meteobridge,2016-09-27 19:57:00,
2016-09-27 13:02:00,65.7,48.0,30.17,NW,323,2.9,3.0,53,0.00,,,0.00,meteobridge,2016-09-27 20:02:00,
2016-09-27 13:07:00,65.1,47.5,30.17,NNW,330,2.9,3.0,53,0.00,,,0.00,meteobridge,2016-09-27 20:07:00,
2016-09-27 13:12:00,64.9,47.8,30.17,NW,319,2.0,3.0,54,0.00,,,0.00,meteobridge,2016-09-27 20:12:00,
2016-09-27 13:17:00,64.8,47.7,30.17,SW,216,0.0,3.0,54,0.00,,,0.00,meteobridge,2016-09-27 20:17:00,
2016-09-27 13:22:00,64.6,48.6,30.17,ESE,105,0.0,1.0,56,0.00,,,0.00,meteobridge,2016-09-27 20:22:00,
2016-09-27 13:27:00,64.6,48.9,30.18,NW,312,0.0,1.0,57,0.00,,,0.00,meteobridge,2016-09-27 20:27:00,
2016-09-27 13:32:00,64.8,48.7,30.17,NW,322,0.0,2.0,56,0.00,,,0.00,meteobridge,2016-09-27 20:32:00,
2016-09-27 13:38:00,65.5,48.9,30.17,NW,314,0.0,2.0,55,0.00,,,0.00,meteobridge,2016-09-27 20:38:00,
2016-09-27 13:43:00,66.4,51.6,30.17,NW,315,2.0,4.0,59,0.00,,,0.00,meteobridge,2016-09-27 20:43:00,
2016-09-27 13:48:00,67.5,48.2,30.17,NNW,333,0.9,2.0,50,0.00,,,0.00,meteobridge,2016-09-27 20:48:00,
2016-09-27 13:53:00,68.7,50.9,30.17,NW,320,0.9,2.0,53,0.00,,,0.00,meteobridge,2016-09-27 20:53:00,
2016-09-27 13:58:00,69.1,50.7,30.17,NW,321,0.9,4.0,52,0.00,,,0.00,meteobridge,2016-09-27 20:58:00,
2016-09-27 14:03:00,69.1,48.6,30.17,NW,321,2.0,3.0,48,0.00,,,0.00,meteobridge,2016-09-27 21:03:00,
2016-09-27 14:08:00,69.4,47.8,30.17,NNW,332,2.0,5.0,46,0.00,,,0.00,meteobridge,2016-09-27 21:08:00,
2016-09-27 14:13:00,69.4,47.8,30.17,WSW,257,0.0,4.0,46,0.00,,,0.00,meteobridge,2016-09-27 21:13:00,
2016-09-27 14:19:00,69.4,48.4,30.17,NW,325,0.0,3.0,47,0.00,,,0.00,meteobridge,2016-09-27 21:19:00,
2016-09-27 14:24:00,69.1,48.0,30.16,NW,306,0.9,5.0,47,0.00,,,0.00,meteobridge,2016-09-27 21:24:00,
2016-09-27 14:29:00,69.1,48.6,30.17,NW,326,2.9,5.0,48,0.00,,,0.00,meteobridge,2016-09-27 21:29:00,
2016-09-27 14:34:00,68.5,47.5,30.16,NW,317,2.0,6.0,47,0.00,,,0.00,meteobridge,2016-09-27 21:34:00,
2016-09-27 14:39:00,68.5,47.5,30.16,NNW,347,0.9,3.0,47,0.00,,,0.00,meteobridge,2016-09-27 21:39:00,
2016-09-27 14:44:00,69.1,47.5,30.16,NW,321,4.0,6.0,46,0.00,,,0.00,meteobridge,2016-09-27 21:44:00,
2016-09-27 14:49:00,69.1,47.5,30.16,NW,314,0.9,5.0,46,0.00,,,0.00,meteobridge,2016-09-27 21:49:00,
2016-09-27 14:54:00,68.7,48.2,30.16,NW,321,2.9,3.0,48,0.00,,,0.00,meteobridge,2016-09-27 21:54:00,
2016-09-27 14:59:00,69.3,52.0,30.16,NNW,330,0.0,3.0,54,0.00,,,0.00,meteobridge,2016-09-27 21:59:00,
2016-09-27 15:04:00,69.3,50.9,30.16,NW,319,0.0,2.0,52,0.00,,,0.00,meteobridge,2016-09-27 22:04:00,
2016-09-27 15:09:00,69.6,47.8,30.16,NW,321,2.0,5.0,46,0.00,,,0.00,meteobridge,2016-09-27 22:09:00,
2016-09-27 15:14:00,69.3,48.7,30.15,NNW,328,4.0,4.0,48,0.00,,,0.00,meteobridge,2016-09-27 22:14:00,
2016-09-27 15:19:00,69.3,49.8,30.15,NNE,18,0.0,5.0,50,0.00,,,0.00,meteobridge,2016-09-27 22:19:00,
2016-09-27 15:24:00,69.8,51.4,30.15,NNW,337,2.0,2.0,52,0.00,,,0.00,meteobridge,2016-09-27 22:24:00,
2016-09-27 15:29:00,70.0,49.5,30.15,NW,319,2.0,3.0,48,0.00,,,0.00,meteobridge,2016-09-27 22:29:00,
2016-09-27 15:34:00,69.1,48.6,30.16,NNW,339,2.0,2.0,48,0.00,,,0.00,meteobridge,2016-09-27 22:34:00,
2016-09-27 15:39:00,69.4,50.0,30.15,NW,315,0.0,2.0,50,0.00,,,0.00,meteobridge,2016-09-27 22:39:00,
2016-09-27 15:44:00,69.3,47.7,30.15,NW,326,0.9,6.0,46,0.00,,,0.00,meteobridge,2016-09-27 22:44:00,
2016-09-27 15:49:00,69.1,48.6,30.15,NW,319,2.0,3.0,48,0.00,,,0.00,meteobridge,2016-09-27 22:49:00,
2016-09-27 15:54:00,69.1,49.6,30.15,NW,324,2.9,3.0,50,0.00,,,0.00,meteobridge,2016-09-27 22:54:00,
2016-09-27 15:59:00,68.7,48.2,30.15,NNW,336,2.0,5.0,48,0.00,,,0.00,meteobridge,2016-09-27 22:59:00,
2016-09-27 16:04:00,68.7,49.3,30.15,NNW,328,0.0,2.0,50,0.00,,,0.00,meteobridge,2016-09-27 23:04:00,
2016-09-27 16:09:00,68.7,48.2,30.15,NW,319,2.0,6.0,48,0.00,,,0.00,meteobridge,2016-09-27 23:09:00,
2016-09-27 16:19:00,68.5,48.6,30.15,WNW,298,0.0,3.0,49,0.00,,,0.00,meteobridge,2016-09-27 23:19:00,
2016-09-27 16:24:00,68.4,48.4,30.15,NNW,330,0.9,3.0,49,0.00,,,0.00,meteobridge,2016-09-27 23:24:00,
2016-09-27 16:35:00,67.6,47.8,30.15,NNW,332,0.0,7.0,49,0.00,,,0.00,meteobridge,2016-09-27 23:35:00,
2016-09-27 16:40:00,67.3,48.0,30.14,NW,318,0.0,3.0,50,0.00,,,0.00,meteobridge,2016-09-27 23:40:00,
2016-09-27 16:45:00,67.1,48.4,30.14,NW,324,0.9,2.0,51,0.00,,,0.00,meteobridge,2016-09-27 23:45:00,
2016-09-27 16:50:00,66.9,48.2,30.14,NW,315,0.0,3.0,51,0.00,,,0.00,meteobridge,2016-09-27 23:50:00,
2016-09-27 16:55:00,66.7,49.1,30.14,NNW,342,0.0,3.0,53,0.00,,,0.00,meteobridge,2016-09-27 23:55:00,
2016-09-27 17:00:00,66.4,48.2,30.14,NNW,329,0.0,2.0,52,0.00,,,0.00,meteobridge,2016-09-28 00:00:00,
2016-09-27 17:05:00,66.2,47.5,30.14,North,356,0.9,2.0,51,0.00,,,0.00,meteobridge,2016-09-28 00:05:00,
2016-09-27 17:10:00,66.0,47.8,30.14,NW,311,0.9,3.0,52,0.00,,,0.00,meteobridge,2016-09-28 00:10:00,
2016-09-27 17:15:00,65.8,47.7,30.14,North,0,2.0,2.0,52,0.00,,,0.00,meteobridge,2016-09-28 00:15:00,
2016-09-27 17:20:00,65.7,47.5,30.14,NW,323,2.9,3.0,52,0.00,,,0.00,meteobridge,2016-09-28 00:20:00,
2016-09-27 17:25:00,65.5,47.5,30.14,NW,316,0.0,3.0,52,0.00,,,0.00,meteobridge,2016-09-28 00:25:00,
2016-09-27 17:30:00,65.5,48.4,30.14,WNW,302,0.9,2.0,54,0.00,,,0.00,meteobridge,2016-09-28 00:30:00,
2016-09-27 17:35:00,65.1,48.0,30.14,WNW,303,0.0,1.0,54,0.00,,,0.00,meteobridge,2016-09-28 00:35:00,
2016-09-27 17:40:00,64.8,47.7,30.14,NW,319,0.0,2.0,54,0.00,,,0.00,meteobridge,2016-09-28 00:40:00,
2016-09-27 17:45:00,64.6,47.5,30.14,NNW,347,0.0,1.0,54,0.00,,,0.00,meteobridge,2016-09-28 00:45:00,
2016-09-27 17:50:00,64.2,47.3,30.14,NW,320,0.0,1.0,54,0.00,,,0.00,meteobridge,2016-09-28 00:50:00,
2016-09-27 17:55:00,64.0,47.1,30.14,NW,306,0.0,1.0,54,0.00,,,0.00,meteobridge,2016-09-28 00:55:00,
2016-09-27 18:00:00,63.7,47.3,30.14,NW,306,0.0,0.0,55,0.00,,,0.00,meteobridge,2016-09-28 01:00:00,
2016-09-27 18:05:00,63.5,48.4,30.14,NW,305,0.0,0.0,58,0.00,,,0.00,meteobridge,2016-09-28 01:05:00,
2016-09-27 18:11:00,63.0,49.3,30.14,West,265,0.0,0.0,61,0.00,,,0.00,meteobridge,2016-09-28 01:11:00,
2016-09-27 18:16:00,62.6,50.2,30.14,West,265,0.0,0.0,64,0.00,,,0.00,meteobridge,2016-09-28 01:16:00,
2016-09-27 18:26:00,61.3,51.1,30.14,West,263,0.0,0.0,69,0.00,,,0.00,meteobridge,2016-09-28 01:26:00,
2016-09-27 18:31:00,60.4,50.5,30.13,West,263,0.0,0.0,70,0.00,,,0.00,meteobridge,2016-09-28 01:31:00,
2016-09-27 18:36:00,59.7,49.5,30.13,West,263,0.0,0.0,69,0.00,,,0.00,meteobridge,2016-09-28 01:36:00,
2016-09-27 18:41:00,59.2,50.5,30.14,West,262,0.0,0.0,73,0.00,,,0.00,meteobridge,2016-09-28 01:41:00,
2016-09-27 18:46:00,58.5,49.8,30.13,West,262,0.0,0.0,73,0.00,,,0.00,meteobridge,2016-09-28 01:46:00,
2016-09-27 18:51:00,57.7,49.5,30.13,West,262,0.0,0.0,74,0.00,,,0.00,meteobridge,2016-09-28 01:51:00,
2016-09-27 18:56:00,57.0,50.2,30.14,West,262,0.0,0.0,78,0.00,,,0.00,meteobridge,2016-09-28 01:56:00,
2016-09-27 19:01:00,56.5,49.3,30.14,West,262,0.0,0.0,77,0.00,,,0.00,meteobridge,2016-09-28 02:01:00,
2016-09-27 19:06:00,55.9,49.5,30.13,West,263,0.0,0.0,79,0.00,,,0.00,meteobridge,2016-09-28 02:06:00,